Volver al catálogo

STARLINK-37925

ActivoComunicacionesVLEO
NORAD 69962·PAYLOAD·🇺🇸 United States

Lanzado Jul 9, 2026 desde Cape Canaveral Space Force Station

Loading…

Próximos Pases (próximas 24 horas)

TLE

ActualizadoSource: CelesTrak SupGP

Época: Sep 15, 2026, 03:01 UTC

1 69962C 26157V   26258.12618056  .00069554  00000+0  20547-2 0  2581
2 69962  53.1584 358.9483 0001074  94.8390 359.4187 15.34360533    16

Sigue STARLINK-37925 en tiempo real con AllMySat

Download on the App Store